Home > Weather > Newtown > Past weeks

Flag for United Kingdom Past Weather in Newtown, Wales, United Kingdom — Yesterday and Last 2 Weeks

Now
51 °F

Cool.


Feels Like: 51 °F
Forecast: 47 / 64 °F
Wind: 3 mph from Northwest

Location: Lake Vyrnwy

Current Time: Jul 30, 2016 at 11:38:03 PM

Latest Report: Jul 30, 2016 at 10:00 PM


Visibility: 19 mi

Pressure: 30.02 "Hg

Humidity: 85%

Dew Point: 47 °F

Location of NewtownLocation

Past Weather in Newtown — Graph

°F

Newtown Temperature Yesterday

Maximum temperature yesterday: 60 °F (at 5:00 PM)
Minimum temperature yesterday: 52 °F (at 11:00 PM)
Average temperature yesterday: 58 °F

High & Low Weather Summary for the Past Weeks

 TemperatureHumidityPressure
High83 °F (Jul 19, 5:00 PM)100% (Jul 15, 10:00 PM)30.23 "Hg (Jul 15, 10:00 PM)
Low49 °F (Jul 30, 12:00 AM)51% (Jul 19, 6:00 PM)29.72 "Hg (Jul 20, 5:00 AM)
Average60 °F91%30.04 "Hg
* Reported Jul 15 10:00 PM — Jul 30 10:00 PM, Newtown, Weather by CustomWeather, © 2016

Note: Actual official high and low records may vary slightly from our data, if they occured in-between our weather recording intervals... More about our weather records

Advertising

Newtown Weather History for the Previous 24 Hours

Scroll right to see more
 ConditionsComfort  
Time TempWeatherWind HumidityBarometerVisibility
10:00 PM
Sat, Jul 30
51 °FCool.3 mph85%30.02 "Hg19 mi
9:00 PM53 °FCool.5 mph80%30.01 "Hg25 mi
8:00 PM57 °FCool.6 mph70%29.98 "Hg12 mi
7:00 PM58 °FCool.5 mph66%29.98 "Hg17 mi
6:00 PM58 °FCool.7 mph66%29.98 "Hg17 mi
5:00 PM58 °FCool.6 mph71%29.98 "Hg19 mi
4:00 PM58 °FCool.6 mph72%29.98 "Hg19 mi
3:00 PM60 °FCool.13 mph68%29.96 "Hg11 mi
2:00 PM60 °FCool.7 mph69%29.96 "Hg14 mi
1:00 PM62 °FCool.8 mph68%29.96 "Hg19 mi
12:00 PM59 °FCool.6 mph71%29.96 "Hg28 mi
11:00 AM58 °FCool.6 mph72%29.96 "Hg18 mi
10:00 AM56 °FCool.6 mph84%29.97 "Hg16 mi
9:00 AM55 °FCool.5 mph87%29.97 "Hg37 mi
8:00 AM54 °FCool.7 mph85%29.96 "Hg17 mi
7:00 AM52 °FCool.9 mph90%29.95 "Hg17 mi
6:00 AM51 °FCool.8 mph93%29.95 "Hg11 mi
5:00 AM51 °FCool.13 mph92%29.95 "Hg19 mi
4:00 AM50 °FCool.9 mph90%29.94 "Hg16 mi
3:00 AM50 °FCool.7 mph89%29.95 "Hg19 mi
2:00 AM50 °FCool.8 mph90%29.95 "Hg18 mi
1:00 AM50 °FCool.6 mph92%29.94 "Hg31 mi
12:00 AM49 °FCool.6 mph96%29.94 "Hg17 mi
11:00 PM
Fri, Jul 29
52 °FCool.2 mph85%29.93 "Hg14 mi
Weather by CustomWeather, © 2016

See weather overviewHow to use our weather pages